Location: Church Cobham
(51.3167°N, 0.4167°W)
Time: 00:12:49
(UTC+00:00)

Daily predictions for brighter satellites

Satellite Brightness Start Highest point End
(mag) Time Altitude Azimuth Time Altitude Azimuth Time Altitude Azimuth
USA 215 4.1 03:21:20 10° E 03:25:43 44° ENE 03:25:43 44° ENE
Cosmos 1943 Rocket 3.2 04:06:38 41° SE 04:07:19 42° ESE 04:12:39 10° NE
CZ-2C R/B 4.0 04:05:39 10° SE 04:10:35 36° ENE 04:13:25 21° NNE
CENTAUR R/B 3.0 04:16:08 48° SSE 04:17:15 55° ESE 04:24:11 10° NE
Cosmos 2297 4.3 04:21:07 47° SSE 04:22:10 54° ESE 04:27:45 10° NE
NOSS 3-2 (A) 3.4 04:27:50 72° SSE 04:28:05 73° SE 04:34:40 10° NE
Cosmos 2278 Rocket 3.5 04:33:50 28° N 04:33:50 28° N 04:36:44 10° NNE
Envisat 4.4 04:29:58 10° NNE 04:34:41 36° E 04:39:21 10° SSE
NOSS 3-2 (C) 4.0 04:33:35 34° S 04:35:47 51° ESE 04:42:03 10° NE
SKYMED 2 4.5 04:33:02 10° SE 04:37:12 47° ENE 04:37:12 47° ENE
Meteor 2-3 Rocket 3.9 04:37:41 10° S 04:43:19 73° E 04:49:04 10° NNE
Cosmos 968 Rocket 4.1 04:42:38 17° S 04:46:23 54° ESE 04:51:24 10° NNE
Cosmos 921 Rocket 3.6 04:50:35 52° SE 04:50:35 52° SE 04:54:01 10° SSE
DNEPR-1 R/B 3.9 04:53:14 69° NNE 04:53:33 71° NE 04:58:55 10° SE
Meteor 1-26 Rocket 4.2 04:53:50 46° NNW 04:55:41 78° W 05:01:30 10° S
Cosmos 1812 3.5 04:56:57 48° SE 04:56:57 48° SE 04:59:56 10° SSE
H-2A R/B 4.3 04:54:20 10° ESE 04:57:43 23° ENE 05:01:10 10° N
Cosmos 1151 Rocket 3.3 05:01:35 41° N 05:03:00 66° ENE 05:07:21 10° SSE
USA 238 DEB 3.6 05:00:10 30° SW 05:03:43 81° SE 05:10:41 10° NE
USA 238 3.6 05:00:13 29° SW 05:03:50 80° SE 05:10:47 10° NE
Cosmos 2344 3.4 05:03:34 40° WSW 05:06:32 74° NW 05:14:44 10° NE
USA 215 3.2 05:04:18 10° SE 05:10:48 69° SW 05:13:03 43° WNW
Cosmos 1816 Rocket 4.5 05:07:04 20° SSW 05:11:20 57° WNW 05:17:34 10° N
Kosmos-917 3.7 05:12:30 82° SSE 05:12:32 82° SE 05:17:39 10° NE
Meteor 1-31 Rocket 3.5 05:09:26 10° NNE 05:13:16 55° E 05:17:06 10° S
Cosmos 2297 Rocket 4.3 05:09:40 11° N 05:13:27 19° NNE 05:17:28 10° ENE
Cosmos 2279 Rocket 4.1 05:07:16 10° N 05:13:31 77° E 05:19:42 10° SSE
Cosmos 1328 Rocket 3.9 05:12:41 20° N 05:15:40 64° ENE 05:19:59 10° SSE
SJ-12 3.9 05:14:33 10° NNE 05:18:43 85° ESE 05:22:52 10° SSW
FALCON 9 DEB 3.5 05:21:07 57° SE 05:21:07 57° SE 05:24:22 10° ENE
Cosmos 2369 Rocket 2.4 05:16:13 10° SSW 05:21:45 69° ESE 05:27:21 10° NNE
Cosmos 1862 3.8 05:19:55 10° S 05:23:47 59° E 05:27:42 10° NNE
COSMO-SKYMED 1 2.5 05:20:56 10° S 05:25:14 62° W 05:25:48 56° WNW
H-2A R/B 2.5 05:23:00 10° N 05:26:43 78° WNW 05:30:27 10° SSW
Cosmos 1634 Rocket 4.0 05:22:23 10° NNW 05:28:34 59° W 05:34:39 10° S
Cosmos 836 Rocket 4.4 05:27:51 37° NW 05:29:52 64° WSW 05:35:01 10° S
Lacrosse 4 Rocket 4.0 05:33:46 10° N 05:35:37 12° NNE 05:37:27 10° NE
Tsikada Rocket 4.2 05:33:13 10° SW 05:39:10 47° WNW 05:45:15 10° N
CZ-4B R/B 3.7 05:38:35 10° ESE 05:41:16 23° ENE 05:43:56 10° NNE
MOS 1-B Rocket 4.3 05:35:51 10° SSW 05:41:41 41° W 05:44:44 23° NW
YAOGAN 6 3.8 05:38:13 10° N 05:40:14 28° NNW 05:40:14 28° NNW
Cosmos 1408 Rocket 4.5 05:38:48 10° SSE 05:42:56 48° E 05:47:06 10° NNE
SAR-Lupe-3 4.4 05:40:19 10° N 05:43:54 65° WNW 05:47:28 10° SSW
Gblst 52 Del rocket 4.5 05:41:33 27° WSW 05:45:10 86° SSE 05:52:12 10° E
Cosmos 1656 Rocket 3.7 05:40:01 10° SSW 05:45:25 76° ESE 05:50:53 10° NNE
CZ-4C R/B 2.7 05:43:03 10° S 05:46:01 55° WSW 05:46:01 55° WSW
DMSP B5D2-2 4.1 05:41:28 10° SSE 05:46:41 85° ENE 05:51:56 10° NNW
Cosmos 2227 Rocket 4.1 05:44:36 10° NNW 05:49:00 23° NE 05:53:24 10° E
CZ-2C R/B 3.0 05:45:36 10° S 05:50:48 43° W 05:54:54 16° NNW
Cosmos 1943 Rocket 2.5 05:48:15 25° WSW 05:51:07 43° NW 05:56:30 10° NNE
Cosmos 1486 Rocket 3.9 05:48:18 10° SSW 05:53:37 74° WNW 05:58:55 10° NNE
Cosmos 1515 Rocket 3.5 05:51:36 10° N 05:56:01 89° E 06:00:22 10° S
SL-8 R/B 4.4 05:54:21 26° WSW 05:56:34 43° SSW 06:01:05 10° SE
Meteor 2-15 4.3 05:51:07 10° NNW 05:57:13 79° W 06:03:15 10° S
FALCON 9 DEB 2.6 05:56:51 56° WNW 05:57:18 71° NNW 06:00:12 10° ENE
Cosmos 2180 Rocket 4.4 05:52:40 10° NNW 05:58:50 68° W 06:04:55 10° S
Meteor 1-27 Rocket 3.8 05:53:17 10° N 05:58:55 80° ENE 06:04:40 10° SSE
COSMOS 2487 3.8 05:59:58 11° N 06:02:57 35° ENE 06:06:03 10° SE
Iridium 2 4.2 05:59:32 10° SW 06:03:02 34° WNW 06:06:33 10° N
Cosmos 773 Rocket 3.9 05:58:39 13° NNW 06:03:20 81° WSW 06:08:31 10° SSE
FALCON 9 DEB 2.7 06:03:16 45° WNW 06:03:53 62° N 06:06:44 10° ENE
Cosmos 2084 Rocket 4.3 06:04:32 24° NW 06:05:10 25° NNW 06:08:30 10° NNE
FALCON 9 DEB 2.7 06:05:15 42° WNW 06:05:57 60° N 06:08:48 10° ENE
Cosmos 2297 4.3 06:03:08 19° WSW 06:06:36 36° NW 06:11:52 10° NNE
SJ 16-02 2.9 06:03:18 10° S 06:07:21 38° ESE 06:11:26 10° NE
NOAA 11 4.1 06:02:05 10° NNE 06:07:36 85° WNW 06:13:05 10° SSW
CENTAUR R/B 2.9 06:03:21 18° WSW 06:08:05 51° NNW 06:15:30 10° NE
Alouette 2 Rocket 3.7 06:05:22 10° N 06:09:30 63° ENE 06:13:00 10° SSE
NOAA 12 4.4 06:07:28 10° NNE 06:12:46 73° ESE 06:18:00 10° S
Envisat 3.4 06:09:02 10° N 06:13:44 38° WNW 06:18:24 10° SW
Meteor 2-19 Rocket 4.4 06:07:55 10° S 06:13:59 88° E 06:20:06 10° N
Cosmos 1340 Rocket 3.7 06:11:51 10° S 06:15:40 52° E 06:19:35 10° NNE
SL-27 R/B 2.4 06:14:05 18° NNW 06:16:39 65° WSW 06:20:10 10° SSE
Cosmos 2278 Rocket 3.9 06:15:41 14° NW 06:16:58 15° NNW 06:20:11 10° N
Cosmos 1500 Rocket 4.0 06:14:43 10° S 06:19:08 67° E 06:23:36 10° NNE
Cosmos 1939 Rocket 3.1 06:15:23 10° NNE 06:19:22 71° ESE 06:23:14 10° S
NOSS 3-2 (A) 4.0 06:15:14 17° W 06:19:29 41° NNW 06:26:04 10° NE
FALCON 9 DEB 2.7 06:21:30 25° W 06:22:58 62° N 06:25:51 10° ENE
Cosmos 2098 Rocket 3.9 06:20:15 10° SW 06:23:57 31° WNW 06:28:30 10° N
Aureole 1 Rocket 4.4 06:26:23 12° NNW 06:26:23 12° NNW 06:27:06 10° NNW
NOSS 3-2 (C) 3.7 06:21:05 10° WSW 06:26:46 50° NNW 06:33:29 10° NE
Cosmos 968 Rocket 4.3 06:24:01 10° WSW 06:28:29 29° NW 06:32:58 10° N
Okean O Rocket 4.3 06:26:04 10° NE 06:29:35 22° E 06:33:04 10° SE
Cosmos 1805 Rocket 4.5 06:26:32 10° S 06:30:48 52° E 06:35:04 10° NNE
Okean 3 Rocket 4.2 06:28:24 10° SW 06:32:32 34° WNW 06:36:42 10° N
Sich 1 4.3 06:28:36 10° SSE 06:32:39 43° E 06:36:43 10° NNE
H-2A R/B 2.3 06:29:14 10° S 06:33:22 51° W 06:37:40 10° NNW
ATLAS 3B R/B 3.8 06:29:07 10° SSW 06:35:20 47° ESE 06:41:50 10° NE
ADEOS 3.8 06:32:51 10° N 06:37:51 46° WNW 06:42:49 10° SW
Cosmos 158 Rocket 4.0 06:33:36 10° NNW 06:38:43 86° WSW 06:43:56 10° SSE
ATLAS 5 CENTAUR R/B 2.8 06:35:25 10° SSW 06:39:03 41° SE 06:43:11 10° NE
Cosmos 1515 3.6 06:40:45 10° NNW 06:44:31 66° W 06:48:17 10° S
Meteor PRIRODA 4.1 06:41:56 10° N 06:45:18 37° WNW 06:48:40 10° SW
Okean 1 3.6 06:41:31 10° N 06:45:30 72° ENE 06:49:25 10° SSE
Cosmos 1354 Rocket 4.1 06:41:00 10° SW 06:46:11 56° WNW 06:51:26 10° NNE
CZ-2C R/B 3.1 06:41:35 10° N 06:46:15 51° WNW 06:51:04 10° SW
Meteor 1-31 Rocket 4.2 06:44:37 10° NNW 06:47:17 18° WNW 06:49:58 10° WSW
USA 238 DEB 4.2 06:49:03 10° W 06:55:19 41° NNW 07:01:59 10° NE
USA 238 4.2 06:49:09 10° W 06:55:25 41° NNW 07:02:04 10° NE
OPS 6432 4.2 06:54:41 10° NW 06:57:37 76° NE 07:00:53 10° SE
FALCON 9 DEB 3.1 06:54:25 10° W 06:57:48 65° N 07:01:12 10° ENE
Cosmos 2297 Rocket 2.6 06:52:59 10° NNW 06:58:39 65° NE 07:04:17 10° SE
SMAP 3.1 06:54:53 10° N 06:59:30 63° WNW 07:04:06 10° SSW
FengYun 1-2 T 4.3 06:57:16 10° N 07:02:41 60° WNW 07:08:04 10° SSW
Cosmos 1809 Rocket 4.5 06:57:38 10° S 07:03:49 85° W 07:10:01 10° N
CZ-4 R/B 4.0 07:02:16 10° NE 07:05:27 23° E 07:08:34 10° SSE
CZ-2D R/B 3.2 07:02:07 10° N 07:05:56 76° WNW 07:09:42 10° SSW
Cosmos 2369 Rocket 3.0 07:01:26 10° WSW 07:06:17 29° NW 07:11:10 10° NNE
Cosmos 1666 3.8 07:05:23 10° S 07:09:02 48° E 07:12:42 10° NNE
Cosmos 1538 Rocket 4.4 07:07:12 10° NW 07:12:15 47° WSW 07:17:12 10° S
Nadezhda 4 Rocket 4.4 07:06:41 10° SW 07:12:29 42° WNW 07:18:24 10° N
